Canyon City, OR

12:04 PM PST on February 08, 2016 (GMT -0800)
Grant County Regional

Weather History for KGCD - March, 2014

Change the Weather History Date:

Tuesday, March 4, 2014

  Actual Average (KBNO) Record (KBNO)
Temperature  
Mean Temperature 46 °F 34 °F  
Max Temperature 57 °F 45 °F 67 °F (1968)
Min Temperature 35 °F 23 °F 5 °F (1985)
Degree Days  
Heating Degree Days 19 31  
Month to date heating degree days 126  
Since 1 July heating degree days 5654  
Cooling Degree Days 0 0  
Month to date cooling degree days 0  
Year to date cooling degree days 0  
Moisture  
Dew Point 34 °F    
Average Humidity 67    
Maximum Humidity 93    
Minimum Humidity 41    
Precipitation  
Precipitation 0.00 in 0.04 in 0.39 in (1985)
Year to date precipitation 2.37  
Sea Level Pressure  
Sea Level Pressure 30.01 in    
Wind  
Wind Speed 8 mph (South)    
Max Wind Speed 15 mph    
Max Gust Speed 23 mph    
Visibility 10 miles    
Events      
T = Trace of Precipitation, MM = Missing Value Source: NWS Daily Summary

Daily Weather History Graph

Daily Weather History Graph

Search for Another Location

Airport or City:

Trip Planner

Search our weather history database for the weather conditions in past years. The results will help you decide how hot, cold, wet, or windy it might be!

Date:

Astronomy

Mar. 04, 2014 Rise Set
Actual Time 6:27 AM PST 5:48 PM PST
Civil Twilight 5:58 AM PST 6:17 PM PST
Nautical Twilight 5:25 AM PST 6:50 PM PST
Astronomical Twilight 4:51 AM PST 7:24 PM PST
Moon 8:07 AM PST (3/4) 10:11 PM PST (3/4)
Length of Visible Light 12h 18m
Length of Day
11h 20m
Waxing Crescent, 15% of the Moon is Illuminated
Mar 4
Waxing Crescent
Mar 8
First Quarter
Mar 16
Full
Mar 23
Last Quarter
Mar 30
New

Hourly Weather History & Observations

Time (PST) Temp. Windchill Dew Point Humidity Pressure Visibility Wind Dir Wind Speed Gust Speed Precip Events Conditions
12:17 AM 41.0 °F 38.0 °F 35.6 °F 81% 29.97 in 10.0 mi East 4.6 mph - N/A   Clear
12:39 AM 37.4 °F 32.1 °F 35.6 °F 93% 29.98 in 10.0 mi ESE 6.9 mph - N/A   Clear
12:57 AM 37.4 °F 32.8 °F 35.6 °F 93% 29.98 in 10.0 mi SSE 5.8 mph - N/A   Clear
1:20 AM 37.4 °F 31.4 °F 35.6 °F 93% 29.98 in 10.0 mi ESE 8.1 mph - N/A   Clear
1:37 AM 37.4 °F 30.8 °F 35.6 °F 93% 29.98 in 10.0 mi SSE 9.2 mph - N/A   Clear
1:57 AM 37.4 °F 32.8 °F 35.6 °F 93% 29.98 in 10.0 mi SE 5.8 mph - N/A   Clear
2:20 AM 35.6 °F - 33.8 °F 93% 29.97 in 10.0 mi Calm Calm - N/A   Clear
2:45 AM 35.6 °F 29.2 °F 33.8 °F 93% 29.98 in 10.0 mi ESE 8.1 mph - N/A   Clear
2:58 AM 35.6 °F 29.2 °F 33.8 °F 93% 30.00 in 10.0 mi ESE 8.1 mph - N/A   Clear
3:47 AM 37.4 °F 32.1 °F 33.8 °F 87% 30.01 in 10.0 mi ESE 6.9 mph - N/A   Clear
4:01 AM 35.6 °F 29.2 °F 33.8 °F 93% 30.00 in 10.0 mi ESE 8.1 mph - N/A   Clear
4:17 AM 35.6 °F 28.6 °F 33.8 °F 93% 29.99 in 10.0 mi East 9.2 mph - N/A   Clear
4:37 AM 35.6 °F 28.0 °F 33.8 °F 93% 30.00 in 10.0 mi ESE 10.4 mph - N/A   Clear
5:19 AM 35.6 °F 29.9 °F 33.8 °F 93% 30.00 in 10.0 mi ESE 6.9 mph - N/A   Clear
5:39 AM 35.6 °F 30.7 °F 33.8 °F 93% 30.01 in 10.0 mi ESE 5.8 mph - N/A   Clear
5:57 AM 35.6 °F 29.9 °F 33.8 °F 93% 30.02 in 10.0 mi ESE 6.9 mph - N/A   Clear
6:19 AM 35.6 °F 29.2 °F 33.8 °F 93% 30.02 in 10.0 mi ESE 8.1 mph - N/A   Clear
6:37 AM 35.6 °F 29.9 °F 33.8 °F 93% 30.02 in 10.0 mi ESE 6.9 mph - N/A   Clear
6:57 AM 35.6 °F 28.0 °F 33.8 °F 93% 30.02 in 10.0 mi ESE 10.4 mph - N/A   Clear
7:23 AM 35.6 °F 28.6 °F 33.8 °F 93% 30.02 in 10.0 mi ESE 9.2 mph - N/A   Clear
7:40 AM 35.6 °F 28.0 °F 33.8 °F 93% 30.02 in 10.0 mi ESE 10.4 mph - N/A   Clear
7:57 AM 35.6 °F 29.2 °F 33.8 °F 93% 30.03 in 10.0 mi East 8.1 mph - N/A   Clear
8:17 AM 37.4 °F 31.4 °F 33.8 °F 87% 30.03 in 10.0 mi ESE 8.1 mph - N/A   Clear
8:39 AM 39.2 °F 34.2 °F 35.6 °F 87% 30.04 in 10.0 mi ESE 6.9 mph - N/A   Clear
8:57 AM 42.8 °F 41.1 °F 35.6 °F 76% 30.04 in 10.0 mi ESE 3.5 mph - N/A   Clear
9:17 AM 42.8 °F - 37.4 °F 81% 30.04 in 10.0 mi Calm Calm - N/A   Clear
9:37 AM 46.4 °F 43.5 °F 39.2 °F 76% 30.05 in 10.0 mi NNE 5.8 mph - N/A   Clear
9:57 AM 48.2 °F - 37.4 °F 66% 30.05 in 10.0 mi WNW 5.8 mph - N/A   Scattered Clouds
10:17 AM 48.2 °F - 37.4 °F 66% 30.07 in 10.0 mi West 6.9 mph - N/A   Mostly Cloudy
10:37 AM 48.2 °F - 37.4 °F 66% 30.08 in 10.0 mi West 9.2 mph - N/A   Scattered Clouds
10:57 AM 50.0 °F - 35.6 °F 58% 30.07 in 10.0 mi West 5.8 mph - N/A   Clear
11:17 AM 50.0 °F - 35.6 °F 58% 30.06 in 10.0 mi West 8.1 mph - N/A   Clear
11:37 AM 51.8 °F - 35.6 °F 54% 30.05 in 10.0 mi WSW 8.1 mph - N/A   Clear
12:00 PM 53.6 °F - 33.8 °F 47% 30.04 in 10.0 mi SW 9.2 mph - N/A   Clear
12:20 PM 53.6 °F - 35.6 °F 51% 30.03 in 10.0 mi WSW 11.5 mph 16.1 mph N/A   Scattered Clouds
12:37 PM 53.6 °F - 33.8 °F 47% 30.02 in 10.0 mi SW 11.5 mph - N/A   Scattered Clouds
1:00 PM 51.8 °F - 33.8 °F 50% 30.02 in 10.0 mi WNW 8.1 mph - N/A   Mostly Cloudy
1:19 PM 51.8 °F - 33.8 °F 50% 30.01 in 10.0 mi West 10.4 mph - N/A   Mostly Cloudy
1:40 PM 53.6 °F - 33.8 °F 47% 30.01 in 10.0 mi West 5.8 mph 9.2 mph N/A   Scattered Clouds
2:01 PM 53.6 °F - 33.8 °F 47% 30.00 in 10.0 mi WNW 5.8 mph - N/A   Mostly Cloudy
2:19 PM 55.4 °F - 33.8 °F 44% 30.00 in 10.0 mi WSW 11.5 mph - N/A   Overcast
2:37 PM 55.4 °F - 33.8 °F 44% 30.00 in 10.0 mi WSW 11.5 mph 16.1 mph N/A   Overcast
2:57 PM 57.2 °F - 33.8 °F 41% 30.00 in 10.0 mi SW 15.0 mph 23.0 mph N/A   Overcast
3:19 PM 53.6 °F - 32.0 °F 44% 30.00 in 10.0 mi SW 12.7 mph 20.7 mph N/A   Overcast
3:39 PM 55.4 °F - 33.8 °F 44% 29.99 in 10.0 mi South 11.5 mph 16.1 mph N/A   Overcast
3:59 PM 55.4 °F - 33.8 °F 44% 29.99 in 10.0 mi SSW 9.2 mph - N/A   Overcast
4:37 PM 53.6 °F - 32.0 °F 44% 29.99 in 10.0 mi SW 12.7 mph 16.1 mph N/A   Mostly Cloudy
4:59 PM 53.6 °F - 33.8 °F 47% 29.99 in 10.0 mi SW 11.5 mph - N/A   Scattered Clouds
5:20 PM 53.6 °F - 33.8 °F 47% 29.98 in 10.0 mi SSW 11.5 mph - N/A   Clear
5:39 PM 51.8 °F - 32.0 °F 47% 29.97 in 10.0 mi South 10.4 mph - N/A   Clear
5:57 PM 51.8 °F - 32.0 °F 47% 29.98 in 10.0 mi South 15.0 mph - N/A   Clear
6:17 PM 51.8 °F - 32.0 °F 47% 29.98 in 10.0 mi SSW 12.7 mph - N/A   Clear
6:37 PM 51.8 °F - 33.8 °F 50% 29.98 in 10.0 mi SSW 11.5 mph - N/A   Clear
6:59 PM 51.8 °F - 33.8 °F 50% 29.99 in 10.0 mi SSW 11.5 mph - N/A   Clear
7:17 PM 51.8 °F - 33.8 °F 50% 29.98 in 10.0 mi South 13.8 mph 18.4 mph N/A   Clear
7:39 PM 51.8 °F - 33.8 °F 50% 29.99 in 10.0 mi NNW 3.5 mph - N/A   Clear
8:00 PM 48.2 °F - 33.8 °F 58% 29.99 in 10.0 mi South 3.5 mph - N/A   Clear
8:17 PM 51.8 °F - 33.8 °F 50% 29.99 in 10.0 mi West 4.6 mph - N/A   Clear
8:40 PM 50.0 °F - 33.8 °F 54% 29.99 in 10.0 mi West 5.8 mph - N/A   Clear
8:57 PM 50.0 °F - 33.8 °F 54% 30.00 in 10.0 mi Calm Calm - N/A   Clear
9:17 PM 50.0 °F - 33.8 °F 54% 29.99 in 10.0 mi SSW 5.8 mph - N/A   Clear
9:37 PM 48.2 °F - 33.8 °F 58% 29.99 in 10.0 mi South 5.8 mph - N/A   Clear
9:57 PM 46.4 °F 41.9 °F 33.8 °F 62% 29.99 in 10.0 mi East 9.2 mph - N/A   Clear
10:17 PM 46.4 °F 42.4 °F 33.8 °F 62% 29.99 in 10.0 mi SSE 8.1 mph - N/A   Mostly Cloudy
10:37 PM 46.4 °F 43.5 °F 35.6 °F 66% 29.99 in 10.0 mi South 5.8 mph - N/A   Overcast
10:57 PM 51.8 °F - 33.8 °F 50% 30.00 in 10.0 mi South 10.4 mph - N/A   Overcast
11:19 PM 50.0 °F - 33.8 °F 54% 29.99 in 10.0 mi South 11.5 mph - N/A   Overcast
11:39 PM 46.4 °F 40.7 °F 35.6 °F 66% 29.99 in 10.0 mi South 12.7 mph - N/A   Overcast
11:57 PM 46.4 °F 42.9 °F 33.8 °F 62% 29.98 in 10.0 mi South 6.9 mph - N/A   Overcast